Grand Island, NE

9:43 PM CDT on August 27, 2016 (GMT -0500)
Central Nebraska Regional

Weather History for KGRI - September, 2013

Change the Weather History Date:

Sunday, September 1, 2013

  Actual Average Record
Temperature  
Mean Temperature 74 °F 71 °F  
Max Temperature 87 °F 83 °F 106 °F (1922)
Min Temperature 60 °F 59 °F 43 °F (1956)
Degree Days  
Heating Degree Days 0 1  
Month to date heating degree days 0 1  
Since 1 July heating degree days 3 11  
Cooling Degree Days 9 7  
Month to date cooling degree days 9 7  
Year to date cooling degree days 1072 921  
Growing Degree Days 26 (Base 50)    
Moisture  
Dew Point 59 °F    
Average Humidity 57    
Maximum Humidity 87    
Minimum Humidity 27    
Precipitation  
Precipitation 0.00 in 0.09 in 5.62 in (1977)
Month to date precipitation 0.00 0.09  
Year to date precipitation 19.41 20.86  
Snow  
Snow 0.00 in 0.00 in - ()
Month to date snowfall 0.0 0.0  
Since 1 July snowfall 0.0 0.0  
Since 1 September snowfall 0.0 0.0  
Snow Depth 0.00 in    
Sea Level Pressure  
Sea Level Pressure 29.95 in    
Wind  
Wind Speed 9 mph (North)    
Max Wind Speed 18 mph    
Max Gust Speed 24 mph    
Visibility 10 miles    
Events Thunderstorm    
T = Trace of Precipitation, MM = Missing Value Source: NWS Daily Summary

Daily Weather History Graph

Daily Weather History Graph

Search for Another Location

Airport or City:

Trip Planner

Search our weather history database for the weather conditions in past years. The results will help you decide how hot, cold, wet, or windy it might be!

Date:

Astronomy

Sep. 01, 2013 Rise Set
Actual Time 7:00 AM CDT 8:05 PM CDT
Civil Twilight 6:32 AM CDT 8:33 PM CDT
Nautical Twilight 5:58 AM CDT 9:06 PM CDT
Astronomical Twilight 5:23 AM CDT 9:41 PM CDT
Moon 3:22 AM CDT (9/1) 5:44 PM CDT (9/1)
Length of Visible Light 14h 01m
Length of Day
13h 04m
Waning Crescent, 13% of the Moon is Illuminated
Sep 1
Waning Crescent
Sep 5
New
Sep 12
First Quarter
Sep 19
Full
Sep 26
Last Quarter

Hourly Weather History & Observations

Time (CDT) Temp. Heat Index Dew Point Humidity Pressure Visibility Wind Dir Wind Speed Gust Speed Precip Events Conditions
12:53 AM 77.0 °F - 72.0 °F 84% 29.79 in 10.0 mi SSE 3.5 mph - 0.01 in   Clear
1:50 AM 75.2 °F - 69.8 °F 83% 29.89 in 10.0 mi WNW 8.1 mph - N/A Thunderstorm Mostly Cloudy
1:53 AM 75.9 °F - 70.0 °F 82% 29.83 in 10.0 mi WNW 8.1 mph - N/A Thunderstorm Scattered Clouds
2:14 AM 75.2 °F - 69.8 °F 83% 29.88 in 10.0 mi NNW 9.2 mph - N/A   Scattered Clouds
2:53 AM 75.0 °F - 68.0 °F 79% 29.83 in 10.0 mi North 16.1 mph 21.9 mph N/A   Scattered Clouds
3:53 AM 72.0 °F - 63.0 °F 73% 29.86 in 10.0 mi North 8.1 mph - N/A   Clear
4:53 AM 70.0 °F - 61.0 °F 73% 29.88 in 10.0 mi North 12.7 mph - N/A   Clear
5:53 AM 69.1 °F - 60.1 °F 73% 29.91 in 10.0 mi North 9.2 mph - N/A   Mostly Cloudy
6:53 AM 66.0 °F - 60.1 °F 81% 29.95 in 10.0 mi NNE 4.6 mph - N/A   Scattered Clouds
7:53 AM 64.9 °F - 60.1 °F 84% 29.98 in 10.0 mi North 5.8 mph - N/A   Clear
8:53 AM 70.0 °F - 59.0 °F 68% 30.00 in 10.0 mi North 6.9 mph - N/A   Clear
9:53 AM 75.0 °F - 57.9 °F 55% 30.01 in 10.0 mi North 9.2 mph - N/A   Clear
10:53 AM 78.1 °F - 55.0 °F 45% 30.01 in 10.0 mi NNE 8.1 mph - N/A   Clear
11:53 AM 81.0 °F 80.4 °F 53.1 °F 38% 30.00 in 10.0 mi North 11.5 mph - N/A   Clear
12:53 PM 82.0 °F - 51.1 °F 34% 29.99 in 10.0 mi NNW 12.7 mph 18.4 mph N/A   Clear
1:53 PM 84.0 °F - 51.1 °F 32% 29.99 in 10.0 mi North 12.7 mph - N/A   Clear
2:53 PM 84.9 °F - 51.1 °F 31% 29.98 in 10.0 mi NNW 16.1 mph 20.7 mph N/A   Clear
3:53 PM 86.0 °F - 51.1 °F 30% 29.96 in 10.0 mi NNW 10.4 mph - N/A   Clear
4:53 PM 86.0 °F - 48.0 °F 27% 29.96 in 10.0 mi North 13.8 mph - N/A   Clear
5:53 PM 84.9 °F - 48.9 °F 29% 29.96 in 10.0 mi North 15.0 mph 20.7 mph N/A   Clear
6:53 PM 81.0 °F 80.7 °F 55.0 °F 41% 29.97 in 10.0 mi North 9.2 mph - N/A   Clear
7:53 PM 73.9 °F - 57.0 °F 55% 29.99 in 10.0 mi NNE 5.8 mph - N/A   Clear
8:53 PM 66.9 °F - 57.9 °F 73% 30.01 in 10.0 mi NNE 4.6 mph - N/A   Clear
9:53 PM 66.0 °F - 59.0 °F 78% 30.03 in 10.0 mi NNE 3.5 mph - N/A   Clear
10:53 PM 64.0 °F - 57.9 °F 80% 30.04 in 10.0 mi Calm Calm - N/A   Clear
11:53 PM 63.0 °F - 55.9 °F 78% 30.04 in 10.0 mi North 4.6 mph - N/A   Clear